User: anonymous   Login
Location: Arroyo Retuerta
(40.5469°N, 4.3534°W)
Time: 18:31:39
(UTC+00:00)
Language:

Spot 4 - Orbit

View from above orbital plane
View from above orbital plane
View from above satellite
View from above satellite

Ground track
Ground track

The orbit data is extracted from the following two-line orbital elements,

1 25260U 98017A   20221.19672248  .00000019  00000-0  15302-4 0  9991
2 25260  98.2935 310.3504 0012654 347.9010  12.1881 14.53629846168612
Epoch (UTC): 08 August 2020 04:43:16
Eccentricity: 0.0012654
inclination: 98.2935°
perigee height: 705 km
apogee height: 723 km
right ascension of ascending node: 310.3504°
argument of perigee: 347.9010°
revolutions per day: 14.53629846
mean anomaly at epoch: 12.1881°
orbit number at epoch: 16861

The dashed part of the orbit path shows where the satellite is in the earth's shadow,  

DLR